Tracking 21094 objects as of 14-Aug-2020
HD Live streaming from Space Station
objects crossing your sky now
Track the most recent launched group of Starlink satellites

ARIANE 44L+ R/B

Track ARIANE 44L+ R/B now!


NORAD ID: 23177
Int'l Code: 1994-040C
Perigee: 367.7 km
Apogee: 35,445.5 km
Inclination: 7.3 °
Period: 627.4 minutes
Semi major axis: 24277 km
RCS: 21.1995 m2 (large)
Launch date: July 8, 1994
Source: France (FR)
Launch site: FRENCH GUIANA (FRGUI)

Note: This is a ROCKET BODY
aabbcc
Your satellite tracking list
Your tracking list is empty




NASA's NSSDC Master Catalog

Two Line Element Set (TLE):
1 23177U 94040C   20225.32942560 -.00000069 +00000-0 +14541-3 0  9993
2 23177 007.2870 267.9469 7224303 048.6376 353.9838 02.29505851215097
Source of the keplerian elements: AFSPC